Theta_e
338 337 338 339 340 338 339 340 339 340 340 340 341 340 340 339 335 335 337 339 338 339 339 337 336 338 339 338 335 335 334 334 333 332 333 337 338 340 339 338 337 339 340
337 337 337 339 339 338 338 337 338 336 339 339 340 338 338 338 335 334 335 337 336 338 337 336 336 336 337 334 337 338 338 338 338 335 334 333 335 338 336 337 338 339 339
337 337 337 338 338 334 334 334 335 334 334 337 336 335 336 336 335 335 336 336 336 336 336 335 335 334 331 334 336 336 336 337 338 338 336 337 337 338 338 336 338 339 339
336 337 336 337 338 333 334 332 333 333 334 335 334 334 335 335 335 335 335 336 335 335 334 329 324 325 331 334 335 333 335 337 336 337 336 336 337 338 338 338 338 337 336
337 337 336 336 336 334 333 333 333 334 334 334 334 333 334 334 334 336 334 333 332 332 329 326 325 324 328 333 331 332 335 334 333 334 335 335 336 337 338 337 336 336 337
338 335 335 335 336 335 331 332 333 333 333 333 333 333 334 333 334 334 332 327 327 327 327 326 326 325 325 329 331 332 334 331 331 329 332 333 333 334 334 334 333 334 335
336 335 334 334 334 335 335 333 334 334 334 334 334 334 334 334 333 330 329 329 329 327 326 326 326 326 325 326 330 330 331 330 330 331 333 334 334 333 333 332 333 332 333
335 336 334 333 335 335 335 334 331 332 333 332 332 333 334 333 330 327 326 326 327 327 326 326 326 326 325 327 330 330 329 329 330 331 332 334 334 333 331 331 331 331 332
333 334 334 333 334 335 334 335 332 332 331 330 329 330 331 330 327 326 326 325 326 326 326 326 326 326 326 324 328 329 329 328 328 330 330 330 330 332 331 330 330 330 329
334 333 334 333 332 333 334 334 333 332 331 328 327 328 326 325 328 327 325 325 325 326 326 326 326 325 325 324 327 329 328 327 328 328 328 326 328 330 327 326 326 327 326
333 332 333 333 331 331 334 334 333 332 330 328 329 329 329 328 328 327 325 325 326 326 326 325 327 328 328 327 327 327 328 327 326 327 326 323 326 327 325 323 322 325 326
332 334 333 334 334 332 332 332 331 331 330 329 330 329 328 327 327 326 325 326 327 327 327 327 327 327 327 327 326 325 327 326 327 326 324 322 322 326 324 321 320 322 323
332 332 334 334 334 332 331 330 330 330 331 329 329 328 330 327 326 325 325 325 326 326 325 325 326 324 324 325 324 323 323 322 323 324 322 321 319 320 321 320 319 319 320
332 333 334 333 332 332 330 331 330 331 330 328 328 328 328 328 327 327 325 325 325 325 324 324 323 322 321 321 320 320 320 320 321 321 321 321 320 318 317 317 316 316 318
332 333 334 332 331 330 330 329 329 329 328 328 329 327 327 326 327 326 326 325 325 324 323 323 323 322 321 319 318 318 318 318 319 318 319 319 318 317 314 313 313 314 315
332 333 333 331 331 330 328 330 329 328 329 329 329 326 328 327 326 325 326 325 324 324 323 323 322 320 318 317 315 315 315 313 314 316 317 317 317 317 316 313 311 311 311
333 331 333 331 330 330 329 330 328 328 328 328 329 327 328 326 326 325 326 326 325 325 324 324 322 321 317 315 313 312 312 312 312 313 314 315 316 316 315 315 314 311 309
332 330 330 332 330 330 330 330 329 328 328 327 327 327 327 327 325 326 325 325 325 324 324 323 321 319 316 314 313 312 311 310 309 310 311 312 313 314 314 314 314 313 313
332 329 327 331 332 330 331 330 329 328 327 327 326 327 327 326 326 324 325 323 324 323 323 322 319 318 316 314 313 312 311 311 311 310 310 310 310 310 311 312 312 312 313
332 332 330 331 331 331 330 330 328 327 326 326 326 326 324 324 326 325 324 324 323 322 320 320 318 317 315 314 314 313 313 311 311 311 310 309 308 309 309 309 310 310 312
333 333 331 331 330 330 330 329 327 326 326 326 326 325 325 326 326 326 325 323 322 321 320 319 318 317 315 315 314 315 312 311 311 310 309 309 309 309 309 309 309 310 311
330 331 331 330 330 330 329 328 328 327 327 327 327 326 327 328 326 325 324 323 321 320 320 319 318 316 315 315 314 311 307 310 310 314 312 309 310 310 309 309 309 310 311
324 330 331 331 330 330 329 328 328 327 327 327 327 327 327 326 324 324 322 320 319 319 319 318 317 316 315 316 315 313 310 309 309 311 313 311 310 312 312 310 310 310 310
317 320 330 331 331 330 329 328 328 327 327 327 327 326 325 324 323 322 320 319 319 318 317 316 316 316 315 315 314 314 314 312 308 309 311 312 312 312 312 312 312 310 310
317 318 328 331 331 330 329 329 326 326 327 327 325 324 323 323 321 319 318 318 317 316 315 315 315 315 315 315 314 313 313 313 313 311 311 311 311 311 311 311 310 311 311
316 318 326 329 331 331 330 329 328 328 327 326 324 323 321 319 318 317 316 316 315 314 312 311 311 312 312 312 311 310 310 311 311 311 311 311 310 309 309 309 308 308 308
Wind_Speed
18 19 18 16 16 16 15 17 18 19 19 20 21 20 19 21 21 22 23 22 23 24 23 21 20 19 19 20 22 23 23 22 21 19 19 19 19 19 19 21 20 21 21
24 20 19 17 18 17 16 17 19 18 18 20 21 20 19 20 21 21 20 23 24 22 21 21 19 18 18 20 20 20 19 18 18 19 18 18 18 18 19 19 20 18 20
25 21 20 18 19 18 18 17 15 18 17 19 20 20 20 20 20 20 20 21 20 20 20 19 19 19 20 20 19 18 15 15 15 17 18 17 16 17 18 19 19 20 19
26 22 20 19 20 19 19 18 18 19 19 19 19 19 19 19 19 19 19 19 19 18 19 20 20 20 20 19 19 18 16 16 17 16 17 15 16 18 18 18 18 18 18
25 23 22 21 20 19 19 19 18 20 19 19 19 18 19 18 18 18 18 18 18 18 18 18 19 19 19 18 19 20 19 18 17 19 19 19 20 18 19 19 18 19 18
24 23 22 21 20 19 19 18 19 18 18 18 18 18 18 18 17 17 17 18 17 16 16 16 17 17 17 16 17 21 20 17 17 15 14 16 17 16 17 17 17 16 15
25 23 21 20 19 19 18 17 18 18 17 17 17 17 17 15 16 16 16 16 15 15 15 14 14 15 15 14 15 16 16 12 13 15 17 17 16 15 15 16 15 14 14
25 24 21 19 19 19 18 17 17 17 16 17 17 17 15 14 14 14 13 13 13 13 13 13 13 13 13 13 16 15 14 10 9 12 14 15 14 13 13 12 13 12 12
22 23 21 20 18 17 17 18 18 16 16 15 16 17 14 11 12 12 11 12 12 11 12 12 12 12 12 12 13 13 10 9 7 9 10 9 10 10 10 9 9 10 9
21 20 20 20 19 18 18 17 17 16 15 15 15 15 12 11 11 10 9 10 10 11 11 11 11 12 13 11 9 9 11 5 6 6 4 6 8 8 8 7 8 8 8
19 20 19 19 19 19 19 18 16 15 15 15 15 14 12 10 9 7 8 9 10 11 10 10 10 9 9 10 8 8 9 5 3 4 5 4 5 6 6 6 7 7 7
21 23 20 21 20 19 18 17 16 15 13 14 13 11 8 5 6 8 8 10 10 10 11 10 8 8 8 6 7 6 4 8 4 5 6 7 3 3 4 5 5 5 5
23 22 20 26 22 18 19 17 16 15 15 13 9 7 8 5 6 6 7 8 6 7 6 7 5 7 6 5 4 5 5 4 5 3 5 5 5 3 3 4 4 4 4
24 24 21 24 18 16 15 17 14 14 13 10 9 10 9 7 6 4 5 3 4 5 6 5 6 6 6 4 4 3 3 3 4 4 5 5 7 7 5 3 3 3 2
26 26 22 23 18 16 16 14 14 12 12 11 12 8 6 6 7 7 6 5 6 4 3 4 4 3 4 5 4 4 4 4 3 4 5 6 7 9 7 5 5 5 5
27 25 22 23 19 18 16 14 15 14 14 12 11 9 7 9 7 5 4 3 2 1 3 5 6 7 6 6 6 6 7 7 7 7 8 9 10 9 9 8 8 7 7
26 25 23 22 22 19 16 14 15 14 13 13 11 7 9 7 6 4 4 2 3 1 3 3 3 5 5 5 7 8 8 8 9 8 7 10 9 10 10 9 10 10 10
26 24 28 22 22 22 18 17 16 15 14 12 12 11 9 8 6 6 5 3 2 1 2 3 5 6 7 8 10 10 9 10 10 9 8 9 11 12 12 13 13 13 12
25 25 26 25 19 23 18 17 16 14 13 12 12 11 10 7 7 5 4 4 1 2 2 3 4 5 8 10 10 12 12 11 10 9 9 9 10 12 14 15 16 16 15
25 25 24 27 21 24 20 17 16 14 14 12 13 11 10 10 8 7 6 3 2 2 3 3 4 6 8 11 15 14 16 11 9 7 9 9 11 13 13 16 17 17 17
30 30 28 28 25 24 23 22 20 18 15 14 12 11 11 10 9 8 6 4 3 1 3 4 5 7 7 11 10 19 8 11 1 3 9 10 9 9 11 14 18 19 19
30 34 33 31 27 26 24 23 21 18 16 14 14 12 13 11 10 9 6 3 2 3 3 5 6 6 5 10 7 5 4 5 2 20 9 6 10 12 14 17 20 21 22
16 27 36 32 29 27 25 23 20 19 18 15 15 13 13 11 10 8 7 4 2 1 2 3 4 5 5 6 8 3 3 2 12 5 16 9 7 20 21 22 23 23 24
10 13 25 33 31 29 27 26 28 25 24 21 19 17 14 11 11 9 7 5 3 1 2 2 3 4 5 7 7 3 6 7 1 5 4 18 15 20 19 22 24 26 28
10 14 16 28 32 32 30 29 24 25 25 23 19 19 16 13 10 8 7 6 3 1 2 2 2 3 4 5 7 10 11 12 10 5 9 17 24 20 22 22 26 29 30
9 11 13 21 32 33 32 28 26 27 24 25 24 21 18 14 13 10 7 5 3 1 1 2 3 4 5 5 6 7 8 6 11 6 6 17 22 28 23 26 26 25 25
Wind_Direction
134 130 125 120 115 105 106 100 99 98 93 93 90 85 82 82 84 86 79 80 81 76 72 72 71 72 77 79 82 82 80 77 72 75 81 77 74 72 74 75 75 74 72
140 135 131 124 120 112 110 105 101 100 96 90 86 85 84 84 88 91 86 79 76 76 75 72 72 71 77 86 85 79 75 75 70 68 71 76 74 74 75 76 78 75 73
137 137 131 128 123 116 108 111 106 100 98 91 88 87 86 87 90 89 88 84 81 78 76 75 74 76 87 91 83 71 70 77 77 78 69 66 67 71 76 74 73 71 68
139 138 134 129 126 121 116 109 108 109 100 96 96 92 92 90 90 88 85 83 82 81 79 78 79 81 89 91 83 65 73 83 86 88 74 69 69 72 72 71 71 68 67
140 141 136 134 131 126 126 121 114 109 107 104 100 97 95 91 89 87 85 86 84 83 82 80 80 82 89 91 73 64 77 85 78 72 76 69 67 66 69 69 67 65 67
144 143 139 138 134 132 128 129 123 116 113 109 106 101 99 96 92 89 87 85 83 80 79 78 78 80 87 95 76 73 91 77 60 60 79 79 72 67 68 66 65 62 61
143 141 139 140 137 136 129 126 124 120 114 109 107 106 103 100 95 91 89 86 83 79 77 76 78 79 81 90 77 73 84 73 61 75 82 80 77 70 67 65 64 60 58
141 140 139 140 139 137 136 133 126 121 119 117 116 111 107 102 97 93 89 86 83 81 79 77 78 79 81 87 83 84 84 77 75 87 85 77 72 67 63 60 56 55 55
140 142 140 142 140 137 137 135 129 130 125 122 118 113 114 104 101 97 93 88 85 83 82 81 79 78 78 87 100 87 72 78 65 73 76 69 64 64 61 57 54 55 51
140 143 143 143 143 141 137 140 138 136 130 124 121 119 115 107 94 89 88 88 85 83 82 83 82 80 71 73 93 61 51 98 81 74 59 60 60 60 57 50 45 45 43
147 149 148 145 144 142 142 144 141 136 129 125 120 116 110 100 89 65 83 85 82 76 70 72 77 69 65 62 55 43 51 71 70 48 23 41 52 49 41 35 35 39 43
158 158 150 153 148 146 147 148 144 138 133 131 122 112 102 103 88 67 86 83 83 78 66 64 53 48 46 63 47 25 37 45 12 6 5 354 16 47 32 24 27 38 45
160 162 164 163 159 153 146 147 144 139 140 126 125 128 138 145 124 97 89 83 64 59 45 39 66 38 42 50 44 47 32 26 21 356 341 343 349 338 349 2 18 28 42
164 160 160 167 159 160 155 157 145 154 150 160 159 157 165 138 150 145 114 86 84 62 76 58 61 47 45 62 24 9 4 11 340 328 333 327 333 329 302 309 334 345 348
158 160 153 165 172 170 167 166 169 165 171 164 167 167 157 153 138 118 117 107 113 93 79 56 25 339 344 349 327 338 304 298 303 334 319 316 319 328 312 295 306 316 319
165 164 160 166 171 173 175 177 173 168 168 173 178 174 144 154 144 154 158 132 114 70 29 34 29 23 22 358 352 341 334 329 296 287 298 306 311 318 327 311 305 306 303
176 180 173 167 176 177 176 173 172 173 174 169 168 156 153 160 156 163 155 121 142 15 59 27 9 339 348 351 339 336 317 316 313 310 295 297 290 305 304 305 307 300 293
183 190 183 170 175 184 183 176 164 161 171 163 166 167 164 163 165 151 143 129 121 51 32 5 345 357 356 340 332 324 314 306 297 291 289 288 289 295 296 300 301 302 301
191 188 185 181 179 186 181 183 181 171 167 173 172 174 170 172 171 144 142 143 83 79 16 1 21 354 342 336 329 324 314 304 297 297 293 285 282 287 291 298 301 294 294
185 185 184 181 180 179 177 178 179 182 172 169 167 169 176 171 168 161 164 178 154 104 63 43 352 336 348 344 332 330 318 309 294 292 311 304 293 283 284 288 295 298 295
184 182 178 181 185 177 178 176 172 172 169 170 171 183 177 180 177 170 159 146 121 84 34 10 353 352 4 1 343 343 2 348 345 322 310 303 307 311 297 294 297 298 296
176 182 180 182 185 186 184 181 176 174 170 160 165 166 168 170 173 174 172 151 70 31 10 353 354 358 356 5 359 348 356 338 333 320 316 302 321 325 321 317 302 296 299
147 178 182 184 185 187 185 180 180 177 174 164 168 164 162 175 174 168 155 164 177 242 6 8 2 357 357 3 12 13 1 318 332 327 319 325 341 326 321 317 309 302 299
159 160 185 186 185 186 186 185 186 179 169 172 170 165 168 171 168 170 169 172 165 93 4 28 355 358 347 350 353 23 326 302 310 322 326 310 329 324 322 319 317 308 306
186 187 175 187 188 186 188 191 192 187 175 168 170 168 170 168 162 154 153 153 141 76 48 34 7 0 354 345 351 341 335 330 317 294 311 316 312 314 312 314 316 312 314
196 194 190 183 186 190 189 192 188 178 167 166 167 169 164 158 154 154 151 150 147 136 76 55 51 45 35 22 8 353 339 328 315 313 292 305 308 315 318 312 314 315 317